Date_and_time,latitude,longitude,wind_speed,RelWindDirFrom,WindDirFrom,air_pressure,air_temperature,relative_humidity,Temp,platform_speed_wrt_ground,air_pressure_at_mean_sea_level,platform_orientation
2019-11-11 23:40,50.6304616666667,-96.9807683333333,5.1,6.7,207,1007.48,-13.6,60,1.30,0.0,1037.28,347.4
2019-11-11 23:50,50.6304616666667,-96.9807683333333,5.6,7.1,210,1007.50,-13.7,62,1.30,0.0,1037.32,347.4
2019-11-12 00:00,50.6304616666667,-96.9807683333333,5.4,6.7,216,1007.52,-13.9,62,1.30,0.0,1037.37,360.0
2019-11-12 00:00,50.6304616666667,-96.9807683333333,5.1,5.1,218,1007.52,-14.0,63,1.30,0.0,1037.39,142.0
2019-11-12 00:10,50.63046,-96.98077,5.3,7.7,222,1007.49,-14.0,63,1.30,0.0,1037.38,142.0
2019-11-12 00:20,50.63046,-96.98077,4.8,6.7,220,1007.33,-14.2,63,1.29,0.0,1037.23,142.0
2019-11-12 00:30,50.6304616666667,-96.9807716666667,4.9,6.0,213,1007.15,-14.3,65,1.28,0.0,1037.07,142.0
2019-11-12 00:40,50.63046,-96.98077,5.1,6.6,214,1007.09,-14.4,66,1.28,0.0,1037.03,142.0
2019-11-12 00:50,50.63046,-96.9807716666667,5.0,6.8,213,1007.09,-14.5,66,1.28,0.0,1037.04,142.0
2019-11-12 01:00,50.63046,-96.9807716666667,5.7,7.3,210,1007.03,-14.4,66,1.28,0.0,1036.98,270.0
2019-11-12 01:10,50.63046,-96.9807716666667,5.8,7.6,201,1006.90,-14.4,67,1.26,0.0,1036.86,270.0
2019-11-12 01:20,50.63046,-96.9807716666667,6.1,7.9,200,1006.84,-14.4,68,1.23,0.0,1036.79,270.0
2019-11-12 01:30,50.63046,-96.98077,6.5,9.3,202,1006.74,-14.6,69,1.23,0.0,1036.71,270.0
2019-11-12 01:40,50.6304583333333,-96.9807716666667,7.4,9.4,200,1006.62,-14.9,69,1.22,0.0,1036.62,270.0
2019-11-12 01:50,50.6304566666667,-96.9807633333333,7.6,9.7,207,1006.52,-15.2,69,1.21,0.0,1036.54,270.0
2019-11-12 02:00,50.6304566666667,-96.980765,7.0,8.6,207,1006.43,-15.2,70,1.20,0.0,1036.45,360.0
2019-11-12 02:10,50.630455,-96.9807616666667,6.6,8.8,201,1006.32,-15.2,71,1.17,0.0,1036.33,360.0
2019-11-12 02:20,50.630455,-96.9807616666667,7.0,8.5,197,1006.18,-15.4,72,1.16,0.0,1036.21,360.0
2019-11-12 02:30,50.6304533333333,-96.9807616666667,7.1,9.1,199,1005.94,-15.6,72,1.16,0.0,1035.98,360.0
2019-11-12 02:40,50.630455,-96.9807616666667,8.0,10.3,203,1005.80,-15.8,72,1.17,0.0,1035.86,360.0
2019-11-12 02:50,50.630455,-96.9807616666667,9.1,11.9,205,1005.68,-15.8,70,1.17,0.0,1035.73,360.0
2019-11-12 03:00,50.630455,-96.9807633333333,9.0,11.7,205,1005.56,-15.6,68,1.17,0.0,1035.60,360.0
2019-11-12 03:10,50.6304566666667,-96.980765,8.7,10.6,203,1005.47,-15.7,67,1.17,0.0,1035.50,360.0
2019-11-12 03:20,50.6304516666667,-96.980755,7.9,10.2,201,1005.39,-15.9,68,1.17,0.0,1035.44,360.0
2019-11-12 03:30,50.6304533333333,-96.9807566666667,8.6,11.3,199,1005.15,-16.2,69,1.17,0.0,1035.23,360.0
2019-11-12 03:40,50.6304533333333,-96.98076,9.1,11.5,196,1004.97,-16.3,69,1.17,0.0,1035.07,360.0
2019-11-12 03:50,50.6304516666667,-96.9807583333333,10.7,14.8,193,1004.80,-16.4,70,1.19,0.0,1034.90,360.0
2019-11-12 04:00,50.6304533333333,-96.9807583333333,10.9,13.9,189,1004.51,-16.5,70,1.20,0.0,1034.62,125.3
2019-11-12 04:10,50.630455,-96.9807616666667,10.0,12.4,191,1004.31,-16.5,70,1.20,0.0,1034.42,125.3
2019-11-12 04:20,50.630455,-96.9807633333333,10.0,12.2,192,1004.11,-16.5,70,1.19,0.0,1034.22,125.3
2019-11-12 04:30,50.6304566666667,-96.9807633333333,10.4,12.7,193,1003.92,-16.5,69,1.17,0.0,1034.05,125.3
2019-11-12 04:40,50.6304566666667,-96.9807616666667,9.6,11.9,188,1003.70,-16.5,70,1.16,0.0,1033.81,125.3
2019-11-12 04:50,50.6304566666667,-96.9807616666667,8.2,9.9,189,1003.58,-16.5,71,1.15,0.0,1033.68,125.3
2019-11-12 05:00,50.6304566666667,-96.9807616666667,8.4,11.5,190,1003.44,-16.5,71,1.14,0.0,1033.54,90.0
2019-11-12 05:10,50.630455,-96.9807616666667,9.6,12.5,191,1003.23,-16.5,71,1.14,0.0,1033.33,90.0
2019-11-12 05:20,50.630455,-96.9807616666667,9.8,12.3,192,1003.06,-16.5,72,1.13,0.0,1033.18,90.0
2019-11-12 05:30,50.630455,-96.9807633333333,9.8,12.2,197,1003.01,-16.4,72,1.12,0.0,1033.12,90.0
2019-11-12 05:40,50.63046,-96.9807666666667,10.1,12.8,193,1002.84,-16.4,71,1.12,0.0,1032.96,90.0
2019-11-12 05:50,50.6304533333333,-96.9807616666667,11.3,14.0,195,1002.71,-16.5,71,1.11,0.0,1032.84,90.0
2019-11-12 06:00,50.6304533333333,-96.9807483333333,11.4,15.3,195,1002.48,-16.5,72,1.09,0.0,1032.60,90.0
2019-11-12 06:10,50.6304533333333,-96.9807616666667,12.0,14.9,196,1002.30,-16.5,72,1.06,0.0,1032.42,90.0
2019-11-12 06:20,50.63046,-96.9807683333333,11.1,14.6,197,1002.23,-16.6,72,1.05,0.0,1032.35,90.0
2019-11-12 06:30,50.630455,-96.980765,11.3,14.7,194,1002.15,-16.6,72,1.05,0.0,1032.26,90.0
2019-11-12 06:40,50.630455,-96.98077,11.2,13.6,192,1001.97,-16.7,73,1.05,0.0,1032.09,90.0
2019-11-12 06:50,50.6304516666667,-96.98077,11.4,15.0,191,1001.77,-16.8,73,1.05,0.0,1031.88,90.0
2019-11-12 07:00,50.6304533333333,-96.9807716666667,11.6,15.4,190,1001.60,-16.8,73,1.05,0.0,1031.71,270.0
2019-11-12 07:10,50.6304516666667,-96.98078,11.9,14.5,191,1001.40,-16.7,73,1.05,0.0,1031.50,270.0
2019-11-12 07:20,50.630455,-96.9807733333333,11.8,15.4,192,1001.28,-16.6,73,1.04,0.0,1031.36,270.0
2019-11-12 07:30,50.630455,-96.9807716666667,12.0,16.3,191,1001.21,-16.6,73,1.02,0.0,1031.29,270.0
2019-11-12 07:40,50.6304566666667,-96.98077,11.8,16.1,195,1001.12,-16.6,73,1.02,0.0,1031.20,270.0
2019-11-12 07:50,50.630455,-96.98077,13.1,17.4,195,1001.00,-16.6,72,1.02,0.0,1031.08,270.0
2019-11-12 08:00,50.630455,-96.98077,13.1,17.3,194,1000.90,-16.6,72,1.03,0.0,1030.98,270.0
2019-11-12 08:10,50.6304566666667,-96.9807716666667,13.7,19.1,189,1000.57,-16.5,72,1.04,0.0,1030.63,270.0
2019-11-12 08:20,50.630455,-96.98077,14.0,17.7,190,1000.38,-16.4,72,1.05,0.0,1030.43,270.0
2019-11-12 08:30,50.630445,-96.9807633333333,14.1,17.6,189,1000.20,-16.2,71,1.06,0.0,1030.24,270.0
2019-11-12 08:40,50.630435,-96.9807566666667,13.3,17.4,191,1000.09,-16.0,71,1.06,0.0,1030.12,270.0
2019-11-12 08:50,50.6304483333333,-96.98075,13.5,17.0,190,999.90,-16.0,71,1.06,0.0,1029.93,270.0
2019-11-12 09:00,50.6304566666667,-96.9807833333333,13.3,18.1,191,999.71,-16.1,71,1.06,0.0,1029.73,270.0
2019-11-12 09:10,50.6304633333333,-96.9807566666667,13.3,17.1,190,999.43,-16.1,71,1.06,0.0,1029.44,270.0
2019-11-12 09:20,50.6304583333333,-96.9807633333333,13.8,17.4,188,999.14,-16.1,71,1.06,0.0,1029.15,270.0
2019-11-12 09:30,50.6304566666667,-96.9807633333333,13.2,16.7,190,998.95,-16.2,71,1.06,0.0,1028.94,270.0
2019-11-12 09:40,50.630455,-96.9807616666667,14.3,18.2,189,998.69,-16.1,71,1.05,0.0,1028.67,270.0
2019-11-12 09:50,50.630455,-96.980765,13.9,18.1,190,998.54,-16.0,71,1.03,0.0,1028.51,270.0
2019-11-12 10:00,50.630455,-96.980765,14.0,19.0,190,998.31,-16.1,72,1.02,0.0,1028.27,90.0
2019-11-12 10:10,50.630475,-96.9808,14.7,19.3,190,997.99,-16.1,72,1.02,0.0,1027.94,90.0
2019-11-12 10:20,50.6304433333333,-96.98075,15.8,21.3,186,997.44,-16.0,72,1.02,0.0,1027.36,90.0
2019-11-12 10:30,50.63045,-96.980755,14.9,18.0,181,997.12,-15.8,72,1.02,0.0,1027.01,90.0
2019-11-12 10:40,50.6304483333333,-96.98076,14.8,18.0,182,996.87,-15.7,72,1.02,0.0,1026.75,90.0
2019-11-12 10:50,50.6304516666667,-96.9807633333333,15.6,19.8,181,996.76,-15.6,71,1.02,0.0,1026.63,90.0
2019-11-12 11:00,50.6304583333333,-96.9807816666667,13.9,17.0,180,996.76,-15.7,72,1.02,0.0,1026.63,293.6
2019-11-12 11:10,50.6304566666667,-96.9807783333333,14.5,17.6,175,996.57,-15.9,72,1.01,0.0,1026.45,293.6
2019-11-12 11:20,50.6304566666667,-96.98078,14.5,17.6,174,996.48,-16.0,73,1.01,0.0,1026.36,293.6
2019-11-12 11:30,50.6304566666667,-96.9807783333333,14.1,17.5,176,996.35,-16.1,74,1.01,0.0,1026.24,293.6
2019-11-12 11:40,50.630455,-96.9807766666667,14.0,17.1,176,996.20,-16.1,74,1.00,0.0,1026.08,293.6
2019-11-12 11:50,50.630455,-96.9807766666667,14.5,17.6,171,995.90,-16.1,74,1.00,0.0,1025.78,293.6
2019-11-12 12:00,50.6304366666667,-96.9807866666667,15.4,19.4,172,995.66,-15.9,75,1.01,0.0,1025.51,203.5
2019-11-12 12:10,50.63044,-96.98078,15.0,19.0,174,995.44,-15.8,75,1.02,0.0,1025.28,203.5
2019-11-12 12:20,50.6304616666667,-96.98078,14.6,18.0,177,995.17,-15.8,74,1.01,0.0,1024.99,203.5
2019-11-12 12:30,50.6304433333333,-96.9807733333333,16.5,21.6,175,994.73,-15.8,73,1.00,0.0,1024.52,203.5
2019-11-12 12:40,50.630445,-96.9807733333333,16.6,20.5,175,994.57,-15.6,73,0.98,0.0,1024.35,203.5
2019-11-12 12:50,50.6304466666667,-96.9807733333333,17.8,21.9,175,994.20,-15.4,72,0.97,0.0,1023.96,203.5
2019-11-12 13:00,50.6304416666667,-96.9807683333333,17.9,23.0,175,993.88,-15.2,72,0.96,0.0,1023.63,360.0
2019-11-12 13:10,50.6304383333333,-96.9807666666667,20.3,24.7,173,993.51,-15.0,70,0.95,0.0,1023.24,360.0
2019-11-12 13:20,50.6304383333333,-96.98077,20.2,25.9,175,993.14,-14.8,69,0.94,0.0,1022.86,360.0
2019-11-12 13:30,50.630435,-96.9807833333333,17.6,25.7,177,993.04,-14.7,69,0.95,0.0,1022.75,360.0
2019-11-12 13:40,50.63043,-96.9807816666667,16.7,21.7,176,992.92,-14.7,69,0.96,0.0,1022.62,360.0
2019-11-12 13:50,50.6304333333333,-96.98078,18.4,22.4,174,992.61,-14.5,68,0.96,0.0,1022.28,360.0
2019-11-12 14:00,50.6304383333333,-96.9807716666667,20.4,25.3,172,992.21,-14.2,67,0.95,0.0,1021.85,147.5
2019-11-12 14:10,50.6304416666667,-96.98077,20.9,25.3,174,991.92,-14.0,66,0.94,0.0,1021.53,147.5
2019-11-12 14:20,50.630445,-96.980765,20.6,25.7,174,991.85,-13.9,66,0.93,0.0,1021.45,147.5
2019-11-12 14:30,50.6304433333333,-96.98077,20.2,27.2,175,991.65,-13.9,66,0.93,0.0,1021.23,147.5
2019-11-12 14:40,50.630445,-96.98077,20.5,25.7,172,991.35,-13.9,67,0.93,0.0,1020.92,147.5
2019-11-12 14:50,50.630445,-96.9807716666667,24.4,28.4,171,990.88,-13.9,66,0.93,0.0,1020.43,147.5
2019-11-12 15:00,50.6304466666667,-96.9807716666667,22.7,27.6,174,990.81,-13.8,66,0.93,0.0,1020.33,49.4
2019-11-12 15:10,50.630445,-96.98077,21.9,28.1,174,990.79,-13.8,66,0.92,0.0,1020.31,49.4
2019-11-12 15:20,50.6304433333333,-96.98077,21.6,26.8,174,990.80,-13.9,65,0.90,0.0,1020.31,49.4
2019-11-12 15:30,50.6304766666667,-96.9807833333333,21.2,26.9,174,990.76,-13.8,65,0.89,0.0,1020.26,49.4
2019-11-12 15:40,50.63044,-96.9807566666667,21.4,27.1,170,990.68,-13.7,65,0.88,0.0,1020.17,49.4
2019-11-12 15:50,50.630445,-96.9807583333333,20.4,24.9,168,990.63,-13.6,66,0.89,0.0,1020.09,49.4
2019-11-12 16:00,50.6304466666667,-96.9807616666667,21.0,24.7,167,990.42,-13.4,67,0.90,0.0,1019.85,12.6
2019-11-12 16:10,50.630445,-96.9807616666667,23.1,28.3,168,989.90,-13.3,67,0.91,0.0,1019.30,12.6
2019-11-12 16:20,50.6304433333333,-96.9807633333333,22.2,25.7,165,989.76,-12.8,67,0.91,0.0,1019.13,12.6
2019-11-12 16:30,50.6304433333333,-96.9807616666667,22.0,25.8,165,989.58,-12.4,67,0.90,0.0,1018.92,12.6
2019-11-12 16:40,50.6304433333333,-96.9807716666667,24.9,29.4,168,989.27,-12.0,64,0.89,0.0,1018.59,12.6
2019-11-12 16:50,50.6304516666667,-96.98077,24.3,29.7,169,989.17,-11.6,64,0.89,0.0,1018.45,12.6
2019-11-12 17:00,50.6304433333333,-96.9807433333333,22.6,30.3,170,989.19,-11.2,63,0.88,0.0,1018.45,90.0
2019-11-12 17:10,50.63044,-96.9807566666667,22.4,26.7,170,989.03,-10.8,62,0.88,0.0,1018.26,90.0
2019-11-12 17:20,50.6304433333333,-96.9807633333333,23.0,28.8,165,988.60,-10.6,63,0.88,0.0,1017.80,90.0
2019-11-12 17:30,50.6304466666667,-96.980765,23.6,28.7,161,988.28,-10.4,65,0.89,0.0,1017.46,90.0
2019-11-12 17:40,50.6304466666667,-96.980765,25.5,31.6,165,987.93,-10.2,63,0.90,0.0,1017.08,90.0
2019-11-12 17:50,50.6304466666667,-96.980765,24.1,29.6,161,987.67,-10.2,64,0.89,0.0,1016.81,90.0
2019-11-12 18:00,50.6304466666667,-96.980765,22.5,28.9,165,987.58,-9.9,64,0.88,0.0,1016.69,90.0
2019-11-12 18:10,50.63045,-96.980775,23.1,28.9,167,987.48,-9.6,62,0.88,0.0,1016.54,90.0
2019-11-12 18:20,50.6304283333333,-96.9807633333333,22.4,27.4,173,987.44,-9.5,60,0.87,0.0,1016.46,90.0
2019-11-12 18:30,50.6304433333333,-96.9807666666667,22.1,28.3,174,987.37,-9.5,59,0.87,0.0,1016.37,90.0
2019-11-12 18:40,50.6304433333333,-96.98077,23.5,30.7,173,987.02,-9.5,58,0.88,0.0,1015.99,90.0
2019-11-12 18:50,50.630445,-96.9807683333333,25.1,31.3,176,986.67,-9.5,59,0.89,0.0,1015.61,90.0
2019-11-12 19:00,50.6304483333333,-96.9807683333333,22.9,28.2,176,986.53,-9.4,59,0.89,0.0,1015.44,270.0
2019-11-12 19:10,50.630445,-96.9807833333333,21.5,25.8,170,986.49,-9.1,60,0.89,0.0,1015.37,270.0
2019-11-12 19:20,50.6304466666667,-96.9807666666667,20.6,24.6,173,986.30,-9.0,61,0.89,0.0,1015.16,270.0
2019-11-12 19:30,50.6304483333333,-96.98077,19.8,23.9,174,986.15,-9.0,60,0.90,0.0,1014.99,270.0
2019-11-12 19:40,50.6304466666667,-96.9807633333333,24.6,32.1,182,985.68,-8.8,59,0.90,0.0,1014.49,270.0
2019-11-12 19:50,50.6304466666667,-96.9807666666667,22.4,30.3,185,985.56,-8.9,59,0.90,0.0,1014.36,270.0
2019-11-12 20:00,50.6304466666667,-96.9807683333333,19.1,29.1,182,985.52,-8.7,60,0.91,0.0,1014.30,293.6
2019-11-12 20:10,50.6304483333333,-96.98077,21.9,29.6,182,985.23,-8.8,60,0.93,0.0,1013.99,293.6
2019-11-12 20:20,50.6304433333333,-96.9807883333333,23.1,31.0,179,985.07,-8.6,60,0.97,0.0,1013.82,293.6
2019-11-12 20:30,50.6304483333333,-96.980775,21.4,28.4,180,985.07,-8.5,59,0.98,0.0,1013.82,293.6
2019-11-12 20:40,50.630435,-96.98075,22.0,32.1,181,984.95,-8.5,60,0.98,0.0,1013.69,293.6
2019-11-12 20:50,50.63044,-96.9807666666667,22.0,29.6,178,984.87,-8.6,60,0.98,0.0,1013.61,293.6
2019-11-12 21:00,50.63044,-96.980765,21.9,27.5,179,984.71,-8.5,61,0.98,0.0,1013.43,142.0
2019-11-12 21:10,50.63044,-96.980765,22.6,30.2,177,984.62,-8.5,61,1.00,0.0,1013.32,142.0
2019-11-12 21:20,50.6304383333333,-96.9807633333333,21.4,32.4,178,984.56,-8.5,61,1.01,0.0,1013.26,142.0
2019-11-12 21:30,50.63044,-96.9807633333333,22.3,27.9,174,984.40,-8.5,61,1.02,0.0,1013.08,142.0
2019-11-12 21:40,50.63044,-96.9807666666667,22.0,26.5,175,984.23,-8.5,61,1.04,0.0,1012.91,142.0
2019-11-12 21:50,50.6304416666667,-96.9807666666667,21.3,26.8,177,984.12,-8.5,61,1.04,0.0,1012.79,142.0
2019-11-12 22:00,50.6304416666667,-96.9807683333333,21.0,28.6,176,984.07,-8.4,61,1.04,0.0,1012.74,360.0
2019-11-12 22:10,50.6304416666667,-96.9807683333333,20.9,28.5,176,984.06,-8.4,62,1.04,0.0,1012.72,360.0
2019-11-12 22:20,50.6304316666667,-96.980785,21.2,27.7,175,983.92,-8.4,61,1.03,0.0,1012.57,360.0
2019-11-12 22:30,50.63045,-96.9807783333333,19.9,26.9,177,983.84,-8.3,61,1.02,0.0,1012.49,360.0
2019-11-12 22:40,50.630445,-96.9807716666667,20.2,26.2,178,983.81,-8.3,60,1.01,0.0,1012.46,360.0
2019-11-12 22:50,50.630445,-96.9807716666667,20.5,26.4,176,983.67,-8.3,60,1.01,0.0,1012.30,360.0
2019-11-12 23:00,50.630445,-96.98077,20.2,26.3,175,983.55,-8.3,61,1.01,0.0,1012.18,360.0
2019-11-12 23:10,50.6304466666667,-96.9807716666667,19.3,26.2,176,983.57,-8.3,61,1.01,0.0,1012.21,360.0
2019-11-12 23:20,50.6304466666667,-96.9807733333333,18.0,22.8,173,983.53,-8.3,61,1.03,0.0,1012.16,360.0
2019-11-12 23:30,50.6304466666667,-96.9807733333333,19.4,24.6,175,983.30,-8.3,60,1.05,0.0,1011.92,360.0
2019-11-12 23:40,50.6304466666667,-96.9807733333333,17.6,22.3,175,983.30,-8.2,60,1.06,0.0,1011.92,360.0
2019-11-12 23:50,50.6304483333333,-96.9807733333333,18.4,23.8,177,983.39,-8.2,59,1.06,0.0,1012.01,360.0
